This demonstration page uses our WeatherBlox Daily Observations layout. Learn more.

Left ArrowRight Arrow

41.55636, -103.73856

Hourly Observations for July 31, 2018

Temp ( °F °C ) Dew Point ( °F °C ) Humidity (%) Winds ( mph kmh ) Pressure ( in mb ) Visibility ( mi km ) Precip ( " mm )
12:58 am 00:58 Clear 53 11.4 47 8.3 81 81 SW 6 9 30.25 1024 10 16 N/A
1:58 am 01:58 Clear 50 10.2 47 8.1 87 87 SW 7 11 30.23 1024 10 16 N/A
2:58 am 02:58 Clear 51 10.3 47 8.1 86 86 SW 5 7 30.22 1023 10 16 N/A
3:58 am 03:58 Clear 51 10.4 46 7.7 84 84 N N/A 30.21 1023 10 16 N/A
4:58 am 04:58 Clear 51 10.4 46 8 85 85 SW 5 7 30.20 1023 10 16 N/A
5:58 am 05:58 Sunny 49 9.2 46 7.6 90 90 WSW 5 7 30.21 1023 10 16 N/A
6:58 am 06:58 Sunny 51 10.5 48 9 91 91 WSW 6 9 30.21 1023 10 16 N/A
7:58 am 07:58 Sunny 59 15 50 10 72 72 SW 8 13 30.20 1023 10 16 N/A
8:58 am 08:58 Sunny 64 17.6 49 9.7 60 60 WSW 10 17 30.18 1022 10 16 N/A
9:58 am 09:58 Sunny 68 20 50 10.2 53 53 WSW 9 15 30.15 1021 10 16 N/A
10:58 am 10:58 Sunny 72 22 48 9 44 44 WSW 6 9 30.15 1021 10 16 N/A
11:58 am 11:58 Sunny 75 23.9 43 6.1 32 32 N N/A 30.13 1020 10 16 N/A
12:58 pm 12:58 Sunny 77 25 41 5 28 28 N N/A 29.88 1012 10 16 N/A
1:58 pm 13:58 Sunny 80 26.8 43 6.2 27 27 NNW 8 13 30.09 1019 10 16 N/A
2:58 pm 14:58 Sunny 82 27.6 42 5.4 24 24 NE 7 11 30.08 1019 10 16 N/A
3:58 pm 15:58 Sunny 83 28.3 38 3.3 20 20 NNE 15 24 30.07 1018 10 16 N/A
4:58 pm 16:58 Sunny 81 27.2 45 7.4 29 29 ENE 10 17 30.06 1018 10 16 N/A
6:58 pm 18:58 Sunny 74 23.2 48 8.9 40 40 E 9 15 30.08 1019 10 16 N/A
7:58 pm 19:58 Sunny 68 20 50 10 53 53 E 6 9 30.09 1019 10 16 N/A
8:58 pm 20:58 Clear 71 21.5 46 7.7 41 41 ENE 3 6 30.07 1018 10 16 N/A
9:58 pm 21:58 Clear 66 19.1 48 8.9 52 52 N N/A 30.09 1019 10 16 N/A
10:58 pm 22:58 Clear 65 18.3 47 8.4 53 53 E 5 7 30.07 1018 10 16 N/A
11:58 pm 23:58 Clear 58 14.2 51 10.5 79 79 N N/A 30.09 1019 10 16 N/A

Powered by AerisWeather